Location: Dimsdale
(55.1333°N, 118.9833°W)
Time: 15:46:38
(UTC+00:00)

ISS - Visible Passes

Search period start: 20 April 2024 00:00
Search period end: 30 April 2024 00:00
Orbit: 412 x 418 km, 51.6° (Epoch: 20 April)

Date Brightness Start Highest point End Pass type
(mag) Time Alt. Az. Time Alt. Az. Time Alt. Az.
24 Apr -1.1 11:16:19 10° SSE 11:17:04 11° SE 11:17:48 10° SE visible
26 Apr -1.8 11:12:55 10° SSW 11:15:19 19° SSE 11:17:44 10° ESE visible
27 Apr -1.6 10:25:37 13° SSE 10:26:30 14° SE 10:28:17 10° ESE visible
28 Apr -2.5 11:11:05 13° SW 11:13:35 29° SSE 11:16:31 10° E visible
29 Apr -2.3 10:23:38 20° S 10:24:37 23° SSE 10:27:19 10° E visible
